Wind_Speed
30 31 33 35 36 38 38 34 31 26 29 31 31 29 29 31 30 30 32 33 33 37 40 42 44 46 50 54 59 64 67 69 68 70 71 72 78 62
35 36 37 38 39 40 38 35 32 25 18 28 31 33 34 32 31 29 29 30 33 37 40 42 46 48 50 56 62 67 73 77 78 77 76 76 71 76
39 40 42 42 41 40 39 38 33 28 20 28 28 30 31 32 33 32 33 33 35 36 38 44 46 48 51 58 64 68 73 78 82 85 83 78 76 63
39 42 43 43 43 42 41 38 39 35 30 27 32 32 30 29 29 32 33 34 34 37 37 41 46 48 56 60 63 68 71 80 84 86 89 83 77 73
37 39 40 40 42 42 39 40 40 43 39 35 36 36 34 34 33 32 32 35 36 35 37 42 46 51 57 61 64 65 61 68 77 81 86 87 75 72
41 42 43 46 50 52 41 40 42 43 44 45 41 42 42 41 39 38 38 37 38 42 42 42 44 50 54 48 44 36 37 39 50 59 68 76 66 66
47 48 49 51 51 49 52 54 51 48 47 46 46 46 47 47 45 44 42 41 40 43 46 44 44 48 50 35 29 23 17 20 22 28 38 55 59 50
46 48 49 48 48 50 51 52 53 53 51 48 49 52 50 52 51 49 47 46 43 43 43 45 42 44 44 30 20 24 20 12 9 25 40 52 67 64
47 48 49 51 52 52 52 54 53 54 56 53 54 52 53 53 53 53 51 50 47 46 42 43 42 40 36 20 19 17 12 18 22 21 28 38 52 66
49 51 52 54 55 56 56 58 58 59 59 59 58 60 56 53 55 51 49 49 48 49 43 40 41 36 32 24 22 17 16 13 23 23 25 30 41 50
51 52 54 56 57 58 59 60 61 62 61 61 61 63 64 65 61 54 54 51 44 44 47 41 41 37 31 28 32 31 23 19 18 25 27 33 37 41
57 58 59 60 62 64 65 65 63 63 62 62 62 62 64 65 65 65 63 60 62 56 46 44 41 39 33 28 29 37 41 36 29 27 28 34 37 39
60 62 63 65 66 67 66 65 63 60 59 60 61 60 62 64 67 70 61 56 53 55 54 47 43 40 37 31 28 30 35 35 38 41 41 39 38 43
64 65 66 66 66 64 63 60 59 57 58 58 58 56 57 56 55 58 60 59 61 60 48 47 45 40 38 35 31 28 30 32 36 35 34 36 42 49
67 67 67 65 64 64 62 61 60 59 59 58 59 57 55 52 57 52 50 54 58 50 46 47 45 48 40 35 33 31 27 28 29 28 31 34 36 38
68 68 66 64 64 63 60 58 58 61 61 57 56 55 53 51 53 47 57 45 56 52 52 49 48 47 41 37 34 32 31 28 24 26 29 30 31 32
67 64 62 63 63 60 58 57 57 58 56 54 52 51 53 51 51 50 46 48 47 55 54 54 52 50 45 41 38 35 32 32 29 26 24 22 25 29
64 60 58 59 59 57 55 54 51 51 50 53 52 49 50 50 47 49 46 47 47 45 49 54 57 58 53 47 44 41 37 31 32 32 30 29 27 25
62 59 57 57 56 54 53 53 49 49 49 51 50 48 49 46 45 46 47 43 47 51 48 45 43 48 55 54 48 45 40 36 33 32 34 34 33 28
60 57 55 54 54 53 54 50 48 49 50 48 46 45 43 41 40 43 41 40 40 41 46 43 42 44 47 54 49 48 49 43 39 37 33 35 36 35
54 52 51 51 52 51 52 48 49 49 47 47 45 42 40 40 39 38 41 38 35 39 39 42 47 45 44 47 53 51 48 45 44 44 43 41 39 37
47 46 47 49 51 51 48 46 46 45 46 43 38 36 36 35 34 33 35 36 38 35 36 38 38 46 49 49 51 53 53 49 50 50 48 47 47 46
43 43 45 46 47 44 41 43 44 43 41 35 33 34 34 34 34 34 35 36 36 35 36 37 37 40 41 50 55 57 57 57 57 54 52 49 48 49
Wind_Direction
273 277 282 286 288 291 294 295 297 298 281 276 281 282 282 282 283 283 279 276 275 272 269 268 270 272 274 272 269 265 259 254 251 249 246 244 244 242
272 275 280 283 289 291 290 289 295 301 272 279 280 283 284 281 280 280 281 282 282 276 272 269 271 274 278 276 274 270 263 256 250 246 245 244 244 242
272 275 278 280 283 286 288 288 284 288 280 268 278 283 287 282 277 278 280 284 282 286 286 282 279 280 284 283 276 273 266 259 252 245 240 242 241 242
276 277 278 282 287 288 291 291 278 277 274 264 272 278 281 288 287 283 282 283 288 287 291 292 286 286 290 289 282 273 268 265 257 245 237 234 236 236
280 281 283 288 290 288 287 289 285 274 273 267 268 272 274 278 281 283 285 290 292 294 291 294 295 292 298 296 289 280 271 270 261 244 233 230 231 231
288 286 283 285 284 285 285 285 286 282 281 272 270 271 273 273 276 279 283 285 289 295 297 296 302 301 302 304 307 297 291 292 267 243 228 222 227 229
282 284 283 281 284 283 283 281 281 280 277 278 275 271 272 273 274 277 279 283 287 293 298 300 306 311 308 301 313 319 298 245 232 215 215 213 217 234
284 286 285 286 286 287 287 284 281 281 279 272 272 273 270 272 276 276 279 281 285 289 298 300 305 314 310 313 292 326 318 274 229 204 205 210 212 221
284 285 285 286 285 284 283 282 284 280 278 274 269 273 270 270 272 275 276 278 281 285 292 297 300 312 309 277 291 301 303 240 245 237 243 218 221 226
289 288 286 285 285 285 284 281 279 278 277 278 272 269 271 272 270 272 272 273 276 280 284 290 295 303 307 277 254 276 281 274 250 241 230 231 232 233
289 290 290 288 287 285 286 282 279 277 274 273 273 267 267 269 266 268 270 273 273 276 277 280 288 289 299 284 255 253 252 247 250 245 237 236 238 234
293 292 291 290 288 288 286 283 280 279 276 273 271 272 268 264 266 267 266 269 269 270 273 274 277 281 282 289 272 261 255 252 248 253 245 244 234 236
290 290 289 288 288 287 287 287 286 286 284 279 275 274 272 270 265 267 267 258 260 266 262 267 269 272 274 277 281 270 264 262 258 258 249 239 239 228
288 287 286 287 286 287 290 289 287 283 282 282 280 278 276 274 269 268 267 260 264 263 260 258 261 265 269 268 272 278 268 259 258 258 256 253 250 248
284 285 285 285 287 288 289 289 286 281 280 280 279 277 276 274 271 271 269 262 263 254 248 255 257 259 260 265 265 269 275 269 260 258 258 257 252 248
282 282 283 284 286 287 288 287 284 282 280 282 282 276 273 275 272 272 272 271 255 250 246 253 258 249 251 256 262 261 264 267 268 257 256 256 256 256
279 280 281 283 284 285 285 284 283 281 280 282 284 279 273 272 271 271 261 266 265 252 253 254 255 253 245 251 255 259 256 258 261 264 262 257 255 258
277 278 279 279 280 280 281 281 280 278 280 281 281 280 278 274 269 268 268 259 258 260 261 259 257 252 249 247 249 251 255 253 254 255 254 258 258 260
277 277 276 275 276 277 279 278 277 277 279 281 281 281 279 273 266 268 270 268 259 254 258 253 251 254 250 246 244 245 247 252 252 251 253 254 253 254
273 272 272 273 274 275 274 274 276 276 279 280 281 281 280 274 267 261 266 269 269 266 256 258 254 251 252 244 237 238 247 249 249 252 253 254 255 254
272 271 269 268 269 270 272 274 274 277 277 279 280 281 277 272 269 263 260 261 266 264 263 256 254 254 254 252 243 242 247 252 248 251 251 252 254 255
266 262 261 262 264 267 270 273 274 276 279 281 282 277 272 267 263 260 258 258 263 264 258 259 259 253 250 251 252 250 247 247 252 258 250 251 251 253
260 257 259 261 265 269 271 271 275 278 281 281 277 272 266 263 261 259 258 257 256 254 257 256 257 255 254 250 250 252 253 255 258 256 251 250 253 252
Height
5677 5675 5673 5670 5668 5664 5661 5658 5656 5655 5648 5646 5645 5644 5643 5641 5638 5637 5635 5635 5634 5633 5633 5633 5633 5633 5633 5632 5630 5630 5630 5632 5634 5637 5642 5647 5652 5657
5668 5667 5664 5662 5659 5656 5653 5650 5647 5645 5644 5638 5637 5635 5634 5632 5630 5629 5627 5625 5624 5623 5622 5621 5620 5618 5616 5614 5611 5609 5606 5607 5610 5615 5620 5626 5633 5641
5658 5657 5655 5652 5650 5647 5644 5641 5638 5636 5636 5632 5628 5626 5624 5623 5621 5620 5617 5616 5614 5611 5609 5607 5605 5602 5598 5594 5590 5584 5580 5579 5581 5587 5595 5604 5614 5623
5649 5647 5645 5643 5641 5638 5635 5632 5629 5626 5625 5625 5619 5617 5615 5613 5611 5609 5607 5605 5603 5600 5597 5594 5590 5585 5580 5573 5566 5558 5553 5548 5548 5554 5567 5582 5591 5608
5639 5637 5635 5632 5630 5627 5624 5621 5618 5616 5615 5614 5612 5607 5605 5604 5602 5600 5597 5595 5592 5588 5585 5581 5575 5569 5561 5549 5539 5528 5521 5516 5511 5519 5537 5557 5573 5587
5628 5625 5623 5620 5617 5616 5613 5610 5608 5605 5603 5602 5602 5598 5595 5592 5591 5589 5586 5583 5580 5576 5572 5567 5561 5553 5542 5531 5519 5509 5500 5492 5491 5495 5513 5539 5559 5571
5614 5611 5608 5606 5603 5601 5600 5596 5594 5592 5590 5589 5587 5585 5582 5579 5578 5576 5574 5571 5567 5564 5560 5554 5548 5538 5529 5520 5512 5499 5493 5485 5486 5497 5512 5529 5549 5553
5601 5598 5595 5592 5590 5587 5584 5581 5579 5577 5576 5573 5572 5571 5568 5567 5564 5562 5561 5559 5556 5551 5549 5542 5537 5528 5519 5511 5508 5500 5493 5492 5495 5501 5511 5524 5535 5541
5586 5583 5580 5577 5574 5571 5568 5565 5562 5559 5558 5558 5557 5555 5553 5550 5549 5547 5545 5545 5543 5540 5537 5534 5527 5521 5513 5508 5506 5502 5498 5497 5499 5503 5507 5514 5523 5532
5571 5568 5564 5561 5558 5555 5552 5548 5545 5543 5541 5539 5538 5538 5536 5534 5533 5532 5529 5528 5528 5526 5525 5524 5519 5515 5509 5505 5502 5502 5499 5497 5498 5500 5504 5508 5513 5521
5555 5553 5550 5545 5542 5539 5536 5531 5526 5523 5521 5520 5519 5517 5517 5516 5516 5515 5514 5514 5513 5511 5512 5512 5510 5507 5503 5498 5496 5496 5497 5498 5498 5499 5500 5504 5508 5513
5537 5533 5530 5526 5523 5519 5516 5512 5508 5504 5501 5499 5498 5497 5496 5496 5496 5496 5496 5497 5497 5498 5499 5499 5498 5496 5494 5491 5488 5486 5488 5491 5494 5497 5497 5499 5501 5506
5517 5513 5510 5506 5502 5498 5495 5492 5490 5486 5483 5480 5477 5475 5475 5475 5476 5475 5476 5479 5480 5481 5483 5485 5485 5484 5483 5483 5479 5477 5476 5478 5480 5483 5488 5491 5493 5495
5497 5493 5490 5487 5483 5479 5477 5473 5470 5467 5464 5462 5459 5457 5456 5455 5455 5455 5456 5459 5461 5463 5466 5468 5470 5471 5471 5471 5471 5469 5467 5467 5468 5470 5473 5476 5480 5485
5477 5472 5470 5467 5464 5461 5458 5454 5451 5448 5446 5443 5440 5439 5438 5438 5438 5438 5438 5438 5442 5445 5449 5451 5454 5456 5458 5459 5459 5459 5459 5458 5458 5459 5461 5464 5467 5471
5456 5453 5451 5448 5444 5442 5438 5435 5432 5430 5427 5425 5422 5420 5420 5420 5420 5420 5421 5422 5424 5427 5431 5434 5437 5440 5443 5446 5447 5448 5449 5449 5450 5450 5451 5453 5456 5458
5435 5434 5432 5428 5425 5422 5420 5417 5415 5413 5410 5408 5405 5402 5402 5403 5404 5403 5404 5407 5409 5411 5414 5418 5421 5424 5427 5431 5435 5436 5438 5440 5441 5442 5443 5443 5445 5447
5415 5416 5412 5407 5406 5403 5402 5400 5398 5396 5394 5391 5389 5386 5386 5387 5388 5388 5389 5391 5393 5395 5397 5400 5403 5407 5412 5416 5420 5423 5426 5428 5431 5433 5434 5435 5436 5438
5395 5393 5390 5387 5386 5386 5384 5383 5382 5380 5378 5375 5373 5371 5370 5371 5372 5373 5374 5376 5378 5380 5383 5384 5386 5390 5395 5400 5404 5409 5412 5415 5418 5421 5423 5425 5426 5429
5370 5370 5369 5368 5368 5368 5366 5366 5365 5364 5362 5360 5358 5356 5356 5356 5357 5359 5361 5362 5364 5366 5368 5370 5372 5375 5379 5383 5387 5393 5397 5401 5404 5408 5411 5413 5415 5418
5348 5349 5349 5349 5349 5350 5349 5351 5349 5348 5347 5345 5343 5342 5342 5342 5342 5344 5346 5349 5350 5352 5355 5357 5359 5362 5364 5368 5373 5378 5382 5386 5390 5393 5396 5400 5402 5405
5327 5329 5330 5331 5332 5333 5334 5335 5334 5333 5332 5331 5329 5329 5328 5328 5329 5330 5332 5334 5337 5339 5340 5343 5345 5347 5351 5354 5358 5363 5367 5371 5374 5377 5381 5384 5388 5391
5309 5312 5314 5315 5316 5317 5319 5320 5320 5320 5319 5318 5317 5316 5316 5317 5317 5319 5320 5322 5323 5325 5327 5329 5331 5334 5336 5339 5343 5348 5352 5355 5359 5362 5366 5369 5372 5375